Date String (YYYY-MM-DD hh:mm:ss) UTC,Instrument flags,Ambient pressure (hPa),Sample flow (lpm),Bypass flow (lpm),Sample temperature (°C),Ambient temperature (°C),ASC tube jacket temperature (°C),LED temperature (°C),Box temperature (°C),Sample RH (%),Span deviation,Mass concentration (μg/m³),Mass concentration (μg/m³),Mass concentration (μg/m³)
DateTimeUTC,F1_M11,P_M11,Q1_M11,Q2_M11,T1_M11,T2_M11,T3_M11,T4_M11,T5_M11,U1_M11,ZSPAN_M11,X0_M11,X2_M11,X1_M11
2022-10-09 11:00:00,,0832.7,5.01,0.00,27.5,26.0,00.0,36.3,29.4,16.0,0000.0,0008.67,0005.71,0005.36
2022-10-09 11:01:00,,0832.8,4.99,0.00,27.5,25.9,00.0,36.3,29.4,16.1,0000.0,0008.59,0005.70,0005.38
2022-10-09 11:02:00,,0832.8,5.00,0.00,27.5,25.9,00.0,36.3,29.4,16.1,0000.0,0008.65,0005.69,0005.38
2022-10-09 11:03:00,,0832.8,5.01,0.00,27.5,26.0,00.0,36.3,29.4,16.1,0000.0,0008.80,0005.70,0005.39
2022-10-09 11:04:00,,0832.8,4.99,0.00,27.5,26.0,00.0,36.3,29.4,16.1,0000.0,0008.73,0005.68,0005.39
2022-10-09 11:05:00,,0832.8,5.01,0.00,27.5,26.0,00.0,36.3,29.4,16.3,0000.0,0008.81,0005.70,0005.41
2022-10-09 11:06:00,,0832.8,5.00,0.00,27.5,26.0,00.0,36.3,29.4,16.6,-000.5,0008.95,0005.80,0005.48
2022-10-09 11:07:00,,0832.8,5.01,0.00,27.5,26.0,00.0,36.3,29.4,16.9,-000.9,0009.13,0005.94,0005.58
2022-10-09 11:08:00,,0832.7,4.99,0.00,27.5,26.0,00.0,36.3,29.4,16.8,-001.0,0008.91,0006.07,0005.68
2022-10-09 11:09:00,,0832.8,4.99,0.00,27.5,26.0,00.0,36.3,29.4,16.6,-000.8,0008.95,0006.14,0005.75
2022-10-09 11:10:00,,0832.8,5.01,0.00,27.5,26.0,00.0,36.3,29.4,17.2,-000.5,0009.17,0006.27,0005.87
2022-10-09 11:11:00,,0832.8,4.99,0.00,27.5,26.0,00.0,36.3,29.4,17.5,-000.5,0009.31,0006.44,0006.03
2022-10-09 11:12:00,,0832.8,4.99,0.00,27.5,26.0,00.0,36.3,29.4,17.6,-000.3,0009.52,0006.64,0006.21
2022-10-09 11:13:00,,0832.8,5.01,0.00,27.5,26.0,00.0,36.3,29.4,17.7,-000.5,0009.75,0006.84,0006.39
2022-10-09 11:14:00,,0832.8,5.00,0.00,27.5,26.0,00.0,36.3,29.4,17.6,-000.9,0009.92,0007.03,0006.56
2022-10-09 11:15:00,,0832.8,5.00,0.00,27.5,26.0,00.0,36.3,29.4,17.5,-000.7,0010.28,0007.22,0006.72
2022-10-09 11:16:00,,0832.8,5.01,0.00,27.5,26.0,00.0,36.3,29.4,17.6,-000.4,0010.51,0007.41,0006.87
2022-10-09 11:17:00,,0832.8,4.99,0.00,27.5,26.0,00.0,36.3,29.4,17.6,-000.1,0010.56,0007.50,0006.98
2022-10-09 11:18:00,,0832.8,5.02,0.00,27.5,26.0,00.0,36.3,29.4,17.6,0000.0,0010.58,0007.53,0007.04
2022-10-09 11:19:00,,0832.7,4.99,0.00,27.5,26.0,00.0,36.3,29.4,17.6,0000.2,0011.15,0007.59,0007.11
2022-10-09 11:20:00,,0832.8,5.01,0.00,27.5,26.0,00.0,36.3,29.4,17.6,0000.1,0011.74,0007.75,0007.23
2022-10-09 11:21:00,,0832.8,4.99,0.00,27.6,26.0,00.0,36.3,29.4,17.6,-000.2,0011.87,0007.85,0007.29
2022-10-09 11:22:00,,0832.7,5.01,0.00,27.5,26.0,00.0,36.3,29.4,17.5,-000.3,0012.11,0007.90,0007.29
2022-10-09 11:23:00,,0832.7,4.99,0.00,27.5,26.0,00.0,36.3,29.4,17.5,-000.2,0012.49,0007.88,0007.25
2022-10-09 11:24:00,,0832.7,4.99,0.00,27.5,26.0,00.0,36.3,29.4,17.5,-000.1,0012.59,0007.88,0007.22
2022-10-09 11:25:00,,0832.8,5.02,0.00,27.5,26.0,00.0,36.3,29.4,17.7,0000.3,0012.63,0007.89,0007.25
2022-10-09 11:26:00,,0832.7,4.99,0.00,27.5,26.0,00.0,36.3,29.4,17.9,0000.5,0012.65,0008.01,0007.38
2022-10-09 11:27:00,,0832.7,5.00,0.00,27.5,26.0,00.0,36.3,29.4,18.1,0000.8,0012.79,0008.15,0007.54
2022-10-09 11:28:00,,0832.7,4.99,0.00,27.5,25.9,00.0,36.3,29.4,18.2,0000.8,0013.22,0008.32,0007.69
2022-10-09 11:29:00,,0832.7,5.00,0.00,27.5,25.9,00.0,36.3,29.4,18.2,0001.1,0013.65,0008.55,0007.84
2022-10-09 11:30:00,,0832.7,5.00,0.00,27.5,25.9,00.0,36.3,29.4,18.2,0001.3,0013.53,0008.75,0008.02
2022-10-09 11:31:00,,0832.8,5.00,0.00,27.5,25.9,00.0,36.3,29.4,18.2,0001.3,0013.25,0008.91,0008.20
2022-10-09 11:32:00,,0832.8,5.01,0.00,27.5,25.9,00.0,36.3,29.3,18.2,0001.2,0013.38,0009.05,0008.35
2022-10-09 11:33:00,,0832.8,4.99,0.00,27.5,25.9,00.0,36.3,29.3,18.2,0001.3,0013.55,0009.20,0008.49
2022-10-09 11:34:00,,0832.8,5.00,0.00,27.5,25.9,00.0,36.3,29.3,18.2,0001.3,0013.36,0009.37,0008.68
2022-10-09 11:35:00,,0832.7,5.00,0.00,27.5,25.8,00.0,36.3,29.3,18.2,0001.5,0013.54,0009.52,0008.84
2022-10-09 11:36:00,,0832.7,5.02,0.00,27.5,25.8,00.0,36.3,29.3,18.1,0001.4,0013.94,0009.66,0008.94
2022-10-09 11:37:00,,0832.7,5.00,0.00,27.4,25.8,00.0,36.3,29.3,18.0,0001.4,0014.14,0009.66,0008.94
2022-10-09 11:38:00,,0832.7,4.99,0.00,27.4,25.8,00.0,36.3,29.3,17.9,0001.5,0014.49,0009.59,0008.86
2022-10-09 11:39:00,,0832.7,5.01,0.00,27.4,25.8,00.0,36.3,29.3,17.8,0001.5,0014.18,0009.48,0008.76
2022-10-09 11:40:00,,0832.7,4.99,0.00,27.4,25.8,00.0,36.2,29.3,17.8,0001.4,0014.09,0009.37,0008.68
2022-10-09 11:41:00,,0832.7,5.01,0.00,27.4,25.8,00.0,36.2,29.3,17.8,0001.2,0014.16,0009.33,0008.59
2022-10-09 11:42:00,,0832.8,5.00,0.00,27.4,25.8,00.0,36.2,29.2,17.9,0001.0,0014.61,0009.25,0008.51
2022-10-09 11:43:00,,0832.8,5.00,0.00,27.4,25.8,00.0,36.2,29.2,17.9,0001.1,0014.49,0009.14,0008.42
2022-10-09 11:44:00,,0832.8,5.01,0.00,27.4,25.8,00.0,36.2,29.2,17.9,0000.8,0014.27,0009.04,0008.36
2022-10-09 11:45:00,,0832.8,4.99,0.00,27.4,25.7,00.0,36.2,29.2,17.8,0000.7,0014.15,0008.95,0008.27
2022-10-09 11:46:00,,0832.8,5.02,0.00,27.4,25.7,00.0,36.2,29.2,17.8,0000.6,0014.08,0008.91,0008.19
2022-10-09 11:47:00,,0832.8,5.00,0.00,27.4,25.7,00.0,36.2,29.2,17.8,0000.6,0013.91,0008.84,0008.14
2022-10-09 11:48:00,,0832.8,5.00,0.00,27.4,25.7,00.0,36.2,29.2,17.8,0000.5,0013.72,0008.80,0008.11
2022-10-09 11:49:00,,0832.8,5.00,0.00,27.4,25.7,00.0,36.2,29.2,17.8,0000.3,0013.38,0008.80,0008.10
2022-10-09 11:50:00,,0832.7,4.99,0.00,27.3,25.7,00.0,36.2,29.2,17.8,0000.4,0013.58,0008.86,0008.11
2022-10-09 11:51:00,,0832.7,5.01,0.00,27.3,25.7,00.0,36.2,29.2,17.8,0000.4,0013.51,0008.86,0008.11
2022-10-09 11:52:00,,0832.8,4.99,0.00,27.3,25.7,00.0,36.2,29.2,17.8,0000.5,0014.19,0008.83,0008.10
2022-10-09 11:53:00,,0832.7,5.01,0.00,27.3,25.7,00.0,36.2,29.2,17.9,0000.5,0013.89,0008.87,0008.13
2022-10-09 11:54:00,,0832.7,4.99,0.00,27.3,25.7,00.0,36.2,29.2,18.0,0000.7,0014.05,0008.94,0008.17
2022-10-09 11:55:00,,0832.7,4.99,0.00,27.3,25.7,00.0,36.1,29.2,18.0,0001.1,0014.49,0009.01,0008.20
2022-10-09 11:56:00,,0832.8,5.01,0.00,27.3,25.7,00.0,36.1,29.1,17.9,0001.2,0014.63,0009.05,0008.21
2022-10-09 11:57:00,,0832.8,4.99,0.00,27.3,25.6,00.0,36.1,29.1,17.3,0001.2,0014.69,0009.00,0008.16
2022-10-09 11:58:00,,0832.7,5.01,0.00,27.3,25.6,00.0,36.1,29.1,16.9,0001.2,0014.69,0008.85,0008.01
2022-10-09 11:59:00,,0832.7,5.00,0.00,27.3,25.6,00.0,36.1,29.1,16.7,0001.1,0015.65,0008.74,0007.86
